Location: Dziadowski
(50.3833°N, 20.0333°E)
Time: 17:36:29
(UTC+00:00)

Okean 3 - Pass Details

Date: 18 January 2026
Orbit: 542 x 563 km, 82.5° (Epoch: 18 February)

Event Time Altitude Azimuth Distance (km) Brightness Sun altitude
Exits shadow 03:50:37 39° 157° (SSE) 821 4.3 -25.1°
Drops below altitude 10° 03:53:12 10° 166° (SSE) 1,803 6.1 -24.7°
Sets 03:55:20 0° 168° (SSE) 2,691 7.0 -24.3°
